����������;��������(kWh)
2019-05-06 00:00;74,6
2019-05-06 00:15;71,65
2019-05-06 00:30;68,55
2019-05-06 00:45;68,45
2019-05-06 01:00;70,3
2019-05-06 01:15;67,4
2019-05-06 01:30;68,3
2019-05-06 01:45;67,45
2019-05-06 02:00;67,95
2019-05-06 02:15;66,7
2019-05-06 02:30;66,85
2019-05-06 02:45;65,85
2019-05-06 03:00;67,25
2019-05-06 03:15;67,2
2019-05-06 03:30;65,8
2019-05-06 03:45;67,15
2019-05-06 04:00;68,35
2019-05-06 04:15;66,75
2019-05-06 04:30;64,45
2019-05-06 04:45;64,35
2019-05-06 05:00;65,7
2019-05-06 05:15;69
2019-05-06 05:30;66,85
2019-05-06 05:45;66,2
2019-05-06 06:00;65,45
2019-05-06 06:15;66
2019-05-06 06:30;61,3
2019-05-06 06:45;59,75
2019-05-06 07:00;62,05
2019-05-06 07:15;66,05
2019-05-06 07:30;67,35
2019-05-06 07:45;65,55
2019-05-06 08:00;71,6
2019-05-06 08:15;71,9
2019-05-06 08:30;73,45
2019-05-06 08:45;80,6
2019-05-06 09:00;87,05
2019-05-06 09:15;96,35
2019-05-06 09:30;99,2
2019-05-06 09:45;99,55
2019-05-06 10:00;105,15
2019-05-06 10:15;106,6
2019-05-06 10:30;112,5
2019-05-06 10:45;108,65
2019-05-06 11:00;109,9
2019-05-06 11:15;119,6
2019-05-06 11:30;122,35
2019-05-06 11:45;121
2019-05-06 12:00;119,25
2019-05-06 12:15;118,85
2019-05-06 12:30;121,7
2019-05-06 12:45;121,85
2019-05-06 13:00;120,65
2019-05-06 13:15;120,15
2019-05-06 13:30;121,1
2019-05-06 13:45;120,25
2019-05-06 14:00;122,9
2019-05-06 14:15;123,4
2019-05-06 14:30;118,5
2019-05-06 14:45;120,45
2019-05-06 15:00;116,35
2019-05-06 15:15;114,8
2019-05-06 15:30;107,2
2019-05-06 15:45;103,95
2019-05-06 16:00;100,85
2019-05-06 16:15;97,1
2019-05-06 16:30;99,55
2019-05-06 16:45;94,1
2019-05-06 17:00;96,65
2019-05-06 17:15;94,8
2019-05-06 17:30;93,9
2019-05-06 17:45;92
2019-05-06 18:00;91,1
2019-05-06 18:15;89,75
2019-05-06 18:30;89,9
2019-05-06 18:45;92,65
2019-05-06 19:00;88,5
2019-05-06 19:15;87,9
2019-05-06 19:30;85,55
2019-05-06 19:45;88,15
2019-05-06 20:00;86,4
2019-05-06 20:15;84,9
2019-05-06 20:30;80,55
2019-05-06 20:45;87,55
2019-05-06 21:00;81,7
2019-05-06 21:15;82,15
2019-05-06 21:30;80,45
2019-05-06 21:45;78,75
2019-05-06 22:00;76,25
2019-05-06 22:15;75,6
2019-05-06 22:30;74,4
2019-05-06 22:45;73,7
2019-05-06 23:00;79,05
2019-05-06 23:15;77,1
2019-05-06 23:30;78,2
2019-05-06 23:45;76,65
2019-05-07 00:00;72,6
2019-05-07 00:15;72
2019-05-07 00:30;73,1
2019-05-07 00:45;71,45
2019-05-07 01:00;69,85
2019-05-07 01:15;70,1
2019-05-07 01:30;71,3
2019-05-07 01:45;73,45
2019-05-07 02:00;70,15
2019-05-07 02:15;69,95
2019-05-07 02:30;69,8
2019-05-07 02:45;71,15
2019-05-07 03:00;71
2019-05-07 03:15;69,7
2019-05-07 03:30;70,55
2019-05-07 03:45;71,2
2019-05-07 04:00;69,15
2019-05-07 04:15;70,2
2019-05-07 04:30;68,85
2019-05-07 04:45;68,05
2019-05-07 05:00;70,35
2019-05-07 05:15;71,2
2019-05-07 05:30;70,3
2019-05-07 05:45;72,35
2019-05-07 06:00;71
2019-05-07 06:15;67,4
2019-05-07 06:30;65,65
2019-05-07 06:45;66,05
2019-05-07 07:00;68,95
2019-05-07 07:15;66,1
2019-05-07 07:30;68,45
2019-05-07 07:45;79,2
2019-05-07 08:00;82,6
2019-05-07 08:15;87,5
2019-05-07 08:30;86,25
2019-05-07 08:45;91,85
2019-05-07 09:00;97,6
2019-05-07 09:15;107,4
2019-05-07 09:30;104,45
2019-05-07 09:45;104,85
2019-05-07 10:00;106,6
2019-05-07 10:15;110,7
2019-05-07 10:30;117,7
2019-05-07 10:45;118,3
2019-05-07 11:00;119,15
2019-05-07 11:15;121,65
2019-05-07 11:30;125,4
2019-05-07 11:45;130,45
2019-05-07 12:00;130,35
2019-05-07 12:15;128,1
2019-05-07 12:30;134,25
2019-05-07 12:45;135,6
2019-05-07 13:00;134,25
2019-05-07 13:15;142,6
2019-05-07 13:30;141,7
2019-05-07 13:45;138,3
2019-05-07 14:00;139,1
2019-05-07 14:15;135
2019-05-07 14:30;137,25
2019-05-07 14:45;140,6
2019-05-07 15:00;137,7
2019-05-07 15:15;132,95
2019-05-07 15:30;131,75
2019-05-07 15:45;123,45
2019-05-07 16:00;119,9
2019-05-07 16:15;111,7
2019-05-07 16:30;108,6
2019-05-07 16:45;105,05
2019-05-07 17:00;101,7
2019-05-07 17:15;102,95
2019-05-07 17:30;102,6
2019-05-07 17:45;100,55
2019-05-07 18:00;98,8
2019-05-07 18:15;94,65
2019-05-07 18:30;96,75
2019-05-07 18:45;102,25
2019-05-07 19:00;100,1
2019-05-07 19:15;101,7
2019-05-07 19:30;95,6
2019-05-07 19:45;96,55
2019-05-07 20:00;94,95
2019-05-07 20:15;93,6
2019-05-07 20:30;90,8
2019-05-07 20:45;96,7
2019-05-07 21:00;93,8
2019-05-07 21:15;92,4
2019-05-07 21:30;89,5
2019-05-07 21:45;86,2
2019-05-07 22:00;85
2019-05-07 22:15;82,65
2019-05-07 22:30;81,6
2019-05-07 22:45;81,9
2019-05-07 23:00;88,75
2019-05-07 23:15;84,1
2019-05-07 23:30;82,4
2019-05-07 23:45;83,35
2019-05-08 00:00;77,8
2019-05-08 00:15;79,05
2019-05-08 00:30;78,5
2019-05-08 00:45;79,6
2019-05-08 01:00;77,15
2019-05-08 01:15;77,8
2019-05-08 01:30;82,25
2019-05-08 01:45;85,75
2019-05-08 02:00;82,6
2019-05-08 02:15;82,95
2019-05-08 02:30;83,65
2019-05-08 02:45;85,25
2019-05-08 03:00;79,95
2019-05-08 03:15;72,45
2019-05-08 03:30;75,05
2019-05-08 03:45;76,6
2019-05-08 04:00;76,15
2019-05-08 04:15;75,3
2019-05-08 04:30;76,1
2019-05-08 04:45;75,6
2019-05-08 05:00;73,95
2019-05-08 05:15;77
2019-05-08 05:30;77,55
2019-05-08 05:45;77,9
2019-05-08 06:00;76,4
2019-05-08 06:15;73,7
2019-05-08 06:30;72,25
2019-05-08 06:45;72,35
2019-05-08 07:00;75,3
2019-05-08 07:15;74,95
2019-05-08 07:30;76,6
2019-05-08 07:45;80
2019-05-08 08:00;84,45
2019-05-08 08:15;85,7
2019-05-08 08:30;87,8
2019-05-08 08:45;96,2
2019-05-08 09:00;97,75
2019-05-08 09:15;104,45
2019-05-08 09:30;109,15
2019-05-08 09:45;110,85
2019-05-08 10:00;111,4
2019-05-08 10:15;115
2019-05-08 10:30;118
2019-05-08 10:45;126,5
2019-05-08 11:00;124
2019-05-08 11:15;127,35
2019-05-08 11:30;132,5
2019-05-08 11:45;132,25
2019-05-08 12:00;139,8
2019-05-08 12:15;141,5
2019-05-08 12:30;142,5
2019-05-08 12:45;148,05
2019-05-08 13:00;140,55
2019-05-08 13:15;134,8
2019-05-08 13:30;133,8
2019-05-08 13:45;130,95
2019-05-08 14:00;127,05
2019-05-08 14:15;127,2
2019-05-08 14:30;128,4
2019-05-08 14:45;127,1
2019-05-08 15:00;123
2019-05-08 15:15;118,55
2019-05-08 15:30;120,4
2019-05-08 15:45;112,7
2019-05-08 16:00;112,55
2019-05-08 16:15;111,1
2019-05-08 16:30;109,7
2019-05-08 16:45;106,95
2019-05-08 17:00;114,55
2019-05-08 17:15;113,15
2019-05-08 17:30;108
2019-05-08 17:45;98,8
2019-05-08 18:00;100,4
2019-05-08 18:15;97,55
2019-05-08 18:30;96,5
2019-05-08 18:45;98,7
2019-05-08 19:00;96,75
2019-05-08 19:15;93,25
2019-05-08 19:30;93,9
2019-05-08 19:45;101,05
2019-05-08 20:00;95,05
2019-05-08 20:15;94,75
2019-05-08 20:30;96,15
2019-05-08 20:45;92,85
2019-05-08 21:00;91,6
2019-05-08 21:15;87,5
2019-05-08 21:30;86,75
2019-05-08 21:45;81,9
2019-05-08 22:00;84,6
2019-05-08 22:15;82,1
2019-05-08 22:30;80,45
2019-05-08 22:45;85,5
2019-05-08 23:00;94,1
2019-05-08 23:15;91,7
2019-05-08 23:30;88,75
2019-05-08 23:45;80,25
2019-05-09 00:00;79,1
2019-05-09 00:15;78,8
2019-05-09 00:30;77,1
2019-05-09 00:45;75,75
2019-05-09 01:00;74,25
2019-05-09 01:15;75
2019-05-09 01:30;75
2019-05-09 01:45;75,25
2019-05-09 02:00;75,7
2019-05-09 02:15;74,65
2019-05-09 02:30;76,85
2019-05-09 02:45;75,15
2019-05-09 03:00;74,45
2019-05-09 03:15;73,85
2019-05-09 03:30;75,7
2019-05-09 03:45;75,15
2019-05-09 04:00;74,45
2019-05-09 04:15;74,35
2019-05-09 04:30;74,2
2019-05-09 04:45;73,4
2019-05-09 05:00;75,8
2019-05-09 05:15;74,3
2019-05-09 05:30;76,85
2019-05-09 05:45;74,6
2019-05-09 06:00;73,2
2019-05-09 06:15;70,35
2019-05-09 06:30;69,2
2019-05-09 06:45;67,3
2019-05-09 07:00;71,6
2019-05-09 07:15;74,5
2019-05-09 07:30;76,9
2019-05-09 07:45;79,95
2019-05-09 08:00;82,6
2019-05-09 08:15;84,3
2019-05-09 08:30;87,15
2019-05-09 08:45;88,6
2019-05-09 09:00;96,25
2019-05-09 09:15;102,55
2019-05-09 09:30;106,5
2019-05-09 09:45;107,2
2019-05-09 10:00;111,95
2019-05-09 10:15;116,05
2019-05-09 10:30;122
2019-05-09 10:45;121,9
2019-05-09 11:00;123,9
2019-05-09 11:15;128,75
2019-05-09 11:30;129,5
2019-05-09 11:45;125,65
2019-05-09 12:00;124,8
2019-05-09 12:15;126,1
2019-05-09 12:30;126,75
2019-05-09 12:45;128,55
2019-05-09 13:00;128,8
2019-05-09 13:15;123,9
2019-05-09 13:30;124,45
2019-05-09 13:45;131,85
2019-05-09 14:00;129,95
2019-05-09 14:15;127,65
2019-05-09 14:30;126,15
2019-05-09 14:45;131,2
2019-05-09 15:00;133,6
2019-05-09 15:15;123,55
2019-05-09 15:30;112,4
2019-05-09 15:45;112,85
2019-05-09 16:00;108,05
2019-05-09 16:15;105,65
2019-05-09 16:30;101,55
2019-05-09 16:45;97,25
2019-05-09 17:00;100,6
2019-05-09 17:15;102,75
2019-05-09 17:30;102,7
2019-05-09 17:45;104,9
2019-05-09 18:00;101,85
2019-05-09 18:15;106,85
2019-05-09 18:30;104,2
2019-05-09 18:45;100,75
2019-05-09 19:00;100,65
2019-05-09 19:15;98,75
2019-05-09 19:30;93
2019-05-09 19:45;94,95
2019-05-09 20:00;95,2
2019-05-09 20:15;94,2
2019-05-09 20:30;90,3
2019-05-09 20:45;92,75
2019-05-09 21:00;97,55
2019-05-09 21:15;96,4
2019-05-09 21:30;95,3
2019-05-09 21:45;89,15
2019-05-09 22:00;79,15
2019-05-09 22:15;80,2
2019-05-09 22:30;80,8
2019-05-09 22:45;79,6
2019-05-09 23:00;85,65
2019-05-09 23:15;83,7
2019-05-09 23:30;85,85
2019-05-09 23:45;81,25
2019-05-10 00:00;76,9
2019-05-10 00:15;76,65
2019-05-10 00:30;81,45
2019-05-10 00:45;78,15
2019-05-10 01:00;76,9
2019-05-10 01:15;77,55
2019-05-10 01:30;77,45
2019-05-10 01:45;78,2
2019-05-10 02:00;75,8
2019-05-10 02:15;75,95
2019-05-10 02:30;77,85
2019-05-10 02:45;76,4
2019-05-10 03:00;74,85
2019-05-10 03:15;72,75
2019-05-10 03:30;73,4
2019-05-10 03:45;73,75
2019-05-10 04:00;72,8
2019-05-10 04:15;72,65
2019-05-10 04:30;73,65
2019-05-10 04:45;72,85
2019-05-10 05:00;71,8
2019-05-10 05:15;73,75
2019-05-10 05:30;73,75
2019-05-10 05:45;75,5
2019-05-10 06:00;75
2019-05-10 06:15;73,95
2019-05-10 06:30;71,45
2019-05-10 06:45;70,6
2019-05-10 07:00;75,35
2019-05-10 07:15;73,75
2019-05-10 07:30;75,25
2019-05-10 07:45;80,6
2019-05-10 08:00;83,55
2019-05-10 08:15;87,6
2019-05-10 08:30;87,3
2019-05-10 08:45;90,75
2019-05-10 09:00;95,75
2019-05-10 09:15;102,2
2019-05-10 09:30;104,2
2019-05-10 09:45;104,6
2019-05-10 10:00;109,8
2019-05-10 10:15;116,6
2019-05-10 10:30;124,1
2019-05-10 10:45;123,55
2019-05-10 11:00;123,15
2019-05-10 11:15;129,15
2019-05-10 11:30;134
2019-05-10 11:45;138,7
2019-05-10 12:00;131,8
2019-05-10 12:15;125,2
2019-05-10 12:30;129,7
2019-05-10 12:45;125,7
2019-05-10 13:00;126,85
2019-05-10 13:15;124,15
2019-05-10 13:30;124,2
2019-05-10 13:45;123,8
2019-05-10 14:00;118,3
2019-05-10 14:15;115,7
2019-05-10 14:30;118,15
2019-05-10 14:45;117,9
2019-05-10 15:00;113,35
2019-05-10 15:15;110,95
2019-05-10 15:30;112,2
2019-05-10 15:45;111,5
2019-05-10 16:00;107,6
2019-05-10 16:15;110
2019-05-10 16:30;105,4
2019-05-10 16:45;103,6
2019-05-10 17:00;102,2
2019-05-10 17:15;96,1
2019-05-10 17:30;97,6
2019-05-10 17:45;93,95
2019-05-10 18:00;90,65
2019-05-10 18:15;90,65
2019-05-10 18:30;91,3
2019-05-10 18:45;90,4
2019-05-10 19:00;99,85
2019-05-10 19:15;99,85
2019-05-10 19:30;100,25
2019-05-10 19:45;92,7
2019-05-10 20:00;91,05
2019-05-10 20:15;89,35
2019-05-10 20:30;93,55
2019-05-10 20:45;91,6
2019-05-10 21:00;91,7
2019-05-10 21:15;87,3
2019-05-10 21:30;82,85
2019-05-10 21:45;81,3
2019-05-10 22:00;82,6
2019-05-10 22:15;79,85
2019-05-10 22:30;76,9
2019-05-10 22:45;78,1
2019-05-10 23:00;82,15
2019-05-10 23:15;78,3
2019-05-10 23:30;74,2
2019-05-10 23:45;73,8
2019-05-11 00:00;74,05
2019-05-11 00:15;74,75
2019-05-11 00:30;70,5
2019-05-11 00:45;70,9
2019-05-11 01:00;73,7
2019-05-11 01:15;72,4
2019-05-11 01:30;70,4
2019-05-11 01:45;71,95
2019-05-11 02:00;75,05
2019-05-11 02:15;78,1
2019-05-11 02:30;78,65
2019-05-11 02:45;77,85
2019-05-11 03:00;77
2019-05-11 03:15;76,6
2019-05-11 03:30;68,85
2019-05-11 03:45;69,55
2019-05-11 04:00;67,55
2019-05-11 04:15;67,25
2019-05-11 04:30;69,7
2019-05-11 04:45;67,45
2019-05-11 05:00;66,25
2019-05-11 05:15;66,45
2019-05-11 05:30;70,6
2019-05-11 05:45;71
2019-05-11 06:00;68,6
2019-05-11 06:15;67,1
2019-05-11 06:30;65,55
2019-05-11 06:45;67,35
2019-05-11 07:00;65,45
2019-05-11 07:15;64,2
2019-05-11 07:30;64,7
2019-05-11 07:45;64,85
2019-05-11 08:00;65,1
2019-05-11 08:15;66,9
2019-05-11 08:30;67,15
2019-05-11 08:45;66
2019-05-11 09:00;65,2
2019-05-11 09:15;65,5
2019-05-11 09:30;63,2
2019-05-11 09:45;63,4
2019-05-11 10:00;63,25
2019-05-11 10:15;62,5
2019-05-11 10:30;65,65
2019-05-11 10:45;65,25
2019-05-11 11:00;64,7
2019-05-11 11:15;64,25
2019-05-11 11:30;66,3
2019-05-11 11:45;71,55
2019-05-11 12:00;74,65
2019-05-11 12:15;72,6
2019-05-11 12:30;73,3
2019-05-11 12:45;70,05
2019-05-11 13:00;65,5
2019-05-11 13:15;63,75
2019-05-11 13:30;63,95
2019-05-11 13:45;65,05
2019-05-11 14:00;67,8
2019-05-11 14:15;66,4
2019-05-11 14:30;67
2019-05-11 14:45;68,4
2019-05-11 15:00;66,15
2019-05-11 15:15;66,2
2019-05-11 15:30;66,95
2019-05-11 15:45;68,8
2019-05-11 16:00;67,2
2019-05-11 16:15;65,6
2019-05-11 16:30;64,75
2019-05-11 16:45;67,1
2019-05-11 17:00;74,85
2019-05-11 17:15;75,4
2019-05-11 17:30;81,45
2019-05-11 17:45;74,2
2019-05-11 18:00;71,6
2019-05-11 18:15;69,25
2019-05-11 18:30;67,8
2019-05-11 18:45;70,9
2019-05-11 19:00;70,05
2019-05-11 19:15;71,05
2019-05-11 19:30;69,5
2019-05-11 19:45;79
2019-05-11 20:00;80,05
2019-05-11 20:15;81,25
2019-05-11 20:30;79,9
2019-05-11 20:45;79,45
2019-05-11 21:00;81,75
2019-05-11 21:15;80,8
2019-05-11 21:30;79,35
2019-05-11 21:45;76,6
2019-05-11 22:00;77,75
2019-05-11 22:15;74,5
2019-05-11 22:30;75,3
2019-05-11 22:45;73,9
2019-05-11 23:00;79,3
2019-05-11 23:15;74,1
2019-05-11 23:30;74,6
2019-05-11 23:45;75,2
2019-05-12 00:00;74,25
2019-05-12 00:15;71,95
2019-05-12 00:30;70,3
2019-05-12 00:45;73,1
2019-05-12 01:00;73,6
2019-05-12 01:15;72,1
2019-05-12 01:30;73,65
2019-05-12 01:45;72,2
2019-05-12 02:00;75,15
2019-05-12 02:15;72,45
2019-05-12 02:30;69,9
2019-05-12 02:45;69,75
2019-05-12 03:00;72,75
2019-05-12 03:15;70,5
2019-05-12 03:30;73,3
2019-05-12 03:45;73,7
2019-05-12 04:00;75,85
2019-05-12 04:15;75,9
2019-05-12 04:30;73,85
2019-05-12 04:45;73,95
2019-05-12 05:00;74,95
2019-05-12 05:15;75,75
2019-05-12 05:30;76,4
2019-05-12 05:45;70,8
2019-05-12 06:00;68,8
2019-05-12 06:15;68,2
2019-05-12 06:30;64,9
2019-05-12 06:45;64,1
2019-05-12 07:00;62,1
2019-05-12 07:15;61,85
2019-05-12 07:30;64,35
2019-05-12 07:45;63,7
2019-05-12 08:00;66,25
2019-05-12 08:15;61,2
2019-05-12 08:30;61,35
2019-05-12 08:45;62,7
2019-05-12 09:00;62,85
2019-05-12 09:15;60,6
2019-05-12 09:30;59,05
2019-05-12 09:45;59
2019-05-12 10:00;59,2
2019-05-12 10:15;61,1
2019-05-12 10:30;62,6
2019-05-12 10:45;60,35
2019-05-12 11:00;62,3
2019-05-12 11:15;63,65
2019-05-12 11:30;64,45
2019-05-12 11:45;65,15
2019-05-12 12:00;64,55
2019-05-12 12:15;72,5
2019-05-12 12:30;73,95
2019-05-12 12:45;75,8
2019-05-12 13:00;74,4
2019-05-12 13:15;69,1
2019-05-12 13:30;70,8
2019-05-12 13:45;70,65
2019-05-12 14:00;69,35
2019-05-12 14:15;69,75
2019-05-12 14:30;73,45
2019-05-12 14:45;70,15
2019-05-12 15:00;70,6
2019-05-12 15:15;69,05
2019-05-12 15:30;68,2
2019-05-12 15:45;68,8
2019-05-12 16:00;65,8
2019-05-12 16:15;65,8
2019-05-12 16:30;65,8
2019-05-12 16:45;68,4
2019-05-12 17:00;71,2
2019-05-12 17:15;71,9
2019-05-12 17:30;69,1
2019-05-12 17:45;68,2
2019-05-12 18:00;77,05
2019-05-12 18:15;74,35
2019-05-12 18:30;73,45
2019-05-12 18:45;70,25
2019-05-12 19:00;70,3
2019-05-12 19:15;68
2019-05-12 19:30;67,15
2019-05-12 19:45;71,85
2019-05-12 20:00;70,45
2019-05-12 20:15;73,45
2019-05-12 20:30;76,65
2019-05-12 20:45;77,75
2019-05-12 21:00;75,45
2019-05-12 21:15;74,35
2019-05-12 21:30;75,1
2019-05-12 21:45;73,3
2019-05-12 22:00;72,5
2019-05-12 22:15;72,35
2019-05-12 22:30;71,1
2019-05-12 22:45;70,4
2019-05-12 23:00;75,65
2019-05-12 23:15;74,35
2019-05-12 23:30;77,05
2019-05-12 23:45;77,1

